N4PWG Weather Reports


Display with metric or nautical units.
time (UTC)temp
F
wind
direction
speed
MPH
gust
MPH
rain 1hr
in
rain 24hr
in
rain mn
in
humidity
%
barometer
mb
20260510174614 80 66 2.0 2.0 0.00 0.00 0.00 58 1033.1
20260510174111 82 17 1.0 1.0 0.00 0.00 0.00 57 1033.1
20260510173607 81 332 1.0 2.0 0.00 0.00 0.00 58 1033.2
20260510173104 81 45 4.0 5.0 0.00 0.00 0.00 58 1033.2
20260510172559 82 241 1.0 1.0 0.00 0.00 0.00 56 1033.2
20260510172055 82 343 0.0 1.0 0.00 0.00 0.00 59 1033.4
20260510171552 80 325 1.0 1.0 0.00 0.00 0.00 59 1033.4
20260510171050 80 50 4.0 5.0 0.00 0.00 0.00 59 1033.7
20260510170546 80 63 1.0 1.0 0.00 0.00 0.00 58 1033.5
20260510170043 80 26 0.0 1.0 0.00 0.00 0.00 57 1033.6
20260510165538 80 35 3.0 3.0 0.00 0.00 0.00 59 1033.5
20260510165035 79 9 4.0 6.0 0.00 0.00 0.00 59 1033.7
20260510164532 78 30 1.0 1.0 0.00 0.00 0.00 61 1033.8
20260510164029 80 52 3.0 3.0 0.00 0.00 0.00 59 1033.8
20260510163524 79 23 2.0 3.0 0.00 0.00 0.00 58 1033.6
20260510163020 79 49 3.0 5.0 0.00 0.00 0.00 61 1033.6
20260510162516 80 5 2.0 2.0 0.00 0.00 0.00 59 1033.8
20260510162012 82 0 3.0 5.0 0.00 0.00 0.00 61 1033.7
20260510161508 82 3 0.0 1.0 0.00 0.00 0.00 60 1033.7
20260510161005 81 349 1.0 1.0 0.00 0.00 0.00 59 1033.6
20260510160503 81 342 0.0 0.0 0.00 0.00 0.00 59 1033.8
20260510160001 79 343 0.0 1.0 0.00 0.00 0.00 64 1033.7
20260510155458 79 313 1.0 1.0 0.00 0.00 0.00 61 1033.6
20260510154955 81 42 2.0 2.0 0.00 0.00 0.00 56 1033.7
20260510154451 81 252 0.0 1.0 0.00 0.00 0.00 59 1033.7
20260510153949 81 281 1.0 1.0 0.00 0.00 0.00 58 1033.7
20260510153446 81 267 1.0 1.0 0.00 0.00 0.00 60 1033.6
20260510152943 79 53 0.0 1.0 0.00 0.00 0.00 61 1033.5
20260510152440 79 327 0.0 0.0 0.00 0.00 0.00 59 1033.5
20260510151937 79 343 0.0 1.0 0.00 0.00 0.00 58 1033.6
20260510151434 78 36 0.0 0.0 0.00 0.00 0.00 60 1033.6
20260510150930 78 38 0.0 0.0 0.00 0.00 0.00 59 1033.2
20260510150426 78 244 1.0 1.0 0.00 0.00 0.00 62 1033.3
20260510145922 77 297 1.0 1.0 0.00 0.00 0.00 62 1033.1
20260510145419 77 61 1.0 1.0 0.00 0.00 0.00 61 1033.2
20260510144915 77 296 0.0 0.0 0.00 0.00 0.00 63 1033.0
20260510144413 76 314 0.0 0.0 0.00 0.00 0.00 63 1033.1
20260510143913 76 301 1.0 2.0 0.00 0.00 0.00 63 1032.9
20260510143409 76 284 0.0 0.0 0.00 0.00 0.00 63 1032.9
20260510142906 76 11 0.0 0.0 0.00 0.00 0.00 63 1033.1
20260510142402 74 5 0.0 0.0 0.00 0.00 0.00 65 1033.3
20260510141859 73 312 1.0 1.0 0.00 0.00 0.00 67 1033.2
20260510141357 74 226 0.0 1.0 0.00 0.00 0.00 64 1033.0
20260510140853 73 352 0.0 0.0 0.00 0.00 0.00 68 1033.2
20260510140350 73 355 0.0 0.0 0.00 0.00 0.00 70 1033.1
20260510135849 72 70 0.0 1.0 0.00 0.00 0.00 70 1033.1
20260510135345 70 305 2.0 2.0 0.00 0.00 0.00 71 1033.1
20260510134842 70 141 1.0 1.0 0.00 0.00 0.00 73 1033.0
20260510134339 70 269 0.0 0.0 0.00 0.00 0.00 73 1033.2
20260510133835 69 353 0.0 0.0 0.00 0.00 0.00 77 1033.3
20260510133331 67 58 1.0 1.0 0.00 0.00 0.00 77 1033.0
20260510132827 66 98 0.0 1.0 0.00 0.00 0.00 80 1033.0
20260510132325 66 8 0.0 0.0 0.00 0.00 0.00 79 1033.0
20260510131822 66 264 0.0 1.0 0.00 0.00 0.00 78 1032.8
20260510131320 65 278 1.0 1.0 0.00 0.00 0.00 79 1032.9
20260510130816 64 3 0.0 0.0 0.00 0.00 0.00 82 1033.0
20260510130313 64 358 0.0 0.0 0.00 0.00 0.00 86 1032.9
20260510125809 62 357 0.0 0.0 0.00 0.00 0.00 87 1032.8
20260510125307 62 3 0.0 0.0 0.00 0.00 0.00 89 1032.9
20260510124803 61 20 0.0 0.0 0.00 0.00 0.00 91 1033.1
20260510124300 60 18 0.0 0.0 0.00 0.00 0.00 93 1033.1
20260510123755 59 20 0.0 0.0 0.00 0.00 0.00 93 1032.9
20260510123251 59 340 0.0 0.0 0.00 0.00 0.00 93 1033.0
20260510122747 58 14 0.0 0.0 0.00 0.00 0.00 95 1033.2
20260510122244 58 355 0.0 0.0 0.00 0.00 0.00 96 1033.0
20260510121740 57 12 0.0 0.0 0.00 0.00 0.00 97 1033.0
20260510121238 56 3 0.0 0.0 0.00 0.00 0.00 98 1032.6
20260510120735 56 21 0.0 0.0 0.00 0.00 0.00 98 1032.7
20260510120232 55 7 0.0 0.0 0.00 0.00 0.00 99 1032.7
20260510115727 55 22 0.0 0.0 0.00 0.00 0.00 99 1032.9
20260510115226 54 356 0.0 0.0 0.00 0.00 0.00 99 1032.7
20260510114720 54 352 0.0 0.0 0.00 0.00 0.00 99 1032.6
20260510114218 54 26 0.0 0.0 0.00 0.00 0.00 99 1032.3
20260510113713 53 357 0.0 0.0 0.00 0.00 0.00 99 1032.4
20260510113210 53 8 0.0 0.0 0.00 0.00 0.00 99 1032.5
20260510112706 53 6 0.0 0.0 0.00 0.00 0.00 99 1032.1
20260510112204 53 21 0.0 0.0 0.00 0.00 0.00 99 1032.0
20260510111659 53 21 0.0 0.0 0.00 0.00 0.00 99 1031.8
20260510111156 52 16 0.0 0.0 0.00 0.00 0.00 99 1031.8
20260510110656 52 337 0.0 0.0 0.00 0.00 0.00 99 1031.7
20260510110154 52 42 0.0 0.0 0.00 0.00 0.00 99 1031.8
20260510105650 52 285 0.0 1.0 0.00 0.00 0.00 99 1031.6
20260510105149 51 354 0.0 0.0 0.00 0.00 0.00 99 1031.8
20260510104646 52 92 1.0 1.0 0.00 0.00 0.00 99 1031.4
20260510104143 52 357 0.0 0.0 0.00 0.00 0.00 99 1031.3
20260510103640 52 327 0.0 0.0 0.00 0.00 0.00 99 1031.5
20260510103137 52 10 0.0 0.0 0.00 0.00 0.00 99 1031.4
20260510102632 52 23 0.0 0.0 0.00 0.00 0.00 99 1031.6
20260510102128 52 301 1.0 1.0 0.00 0.00 0.00 99 1031.5
20260510101626 51 131 0.0 0.0 0.00 0.00 0.00 99 1031.6
20260510101124 51 73 0.0 1.0 0.00 0.00 0.00 99 1031.3
20260510100620 52 359 0.0 0.0 0.00 0.00 0.00 99 1031.0
20260510100117 52 21 0.0 0.0 0.00 0.00 0.00 99 1031.0
20260510095613 51 340 0.0 0.0 0.00 0.00 0.00 99 1030.8
20260510095113 51 11 0.0 0.0 0.00 0.00 0.00 99 1031.0
20260510094612 51 0 0.0 0.0 0.00 0.00 0.00 99 1030.7
20260510094108 51 13 0.0 0.0 0.00 0.00 0.00 99 1030.7
20260510093604 51 13 0.0 0.0 0.00 0.00 0.00 99 1030.4
20260510093101 51 13 0.0 0.0 0.00 0.00 0.00 99 1030.6
20260510092558 51 8 0.0 0.0 0.00 0.00 0.00 99 1030.5
20260510092057 51 18 0.0 0.0 0.00 0.00 0.00 99 1030.2
20260510091554 52 24 0.0 0.0 0.00 0.00 0.00 99 1030.0
20260510091050 53 49 0.0 0.0 0.00 0.00 0.00 99 1030.0
20260510090548 52 39 0.0 0.0 0.00 0.00 0.00 99 1030.3
20260510090043 52 42 0.0 0.0 0.00 0.00 0.00 99 1030.3
20260510085538 52 48 0.0 0.0 0.00 0.00 0.00 99 1030.2
20260510085034 52 48 0.0 0.0 0.00 0.00 0.00 99 1030.2
20260510084531 52 48 0.0 0.0 0.00 0.00 0.00 99 1030.4
20260510084028 53 49 0.0 0.0 0.00 0.00 0.00 99 1030.3
20260510083525 53 50 0.0 0.0 0.00 0.00 0.00 99 1030.0
20260510083021 53 53 0.0 0.0 0.00 0.00 0.00 99 1030.2
20260510082518 52 4 0.0 0.0 0.00 0.00 0.00 99 1030.2
20260510082018 53 15 0.0 0.0 0.00 0.00 0.00 99 1029.7
20260510081514 53 15 0.0 0.0 0.00 0.00 0.00 99 1029.9
20260510081010 53 15 0.0 0.0 0.00 0.00 0.00 99 1029.6
20260510080508 53 14 0.0 0.0 0.00 0.00 0.00 98 1029.8
20260510080006 53 14 0.0 0.0 0.00 0.00 0.00 98 1029.8
20260510075503 53 20 0.0 0.0 0.00 0.00 0.00 99 1029.6
20260510075000 54 20 0.0 0.0 0.00 0.00 0.00 98 1029.4
20260510074458 54 32 0.0 0.0 0.00 0.00 0.00 98 1029.3
20260510073953 54 12 0.0 0.0 0.00 0.00 0.00 99 1029.3
20260510073449 54 17 0.0 0.0 0.00 0.00 0.00 98 1029.5
20260510072945 54 22 0.0 0.0 0.00 0.00 0.00 98 1029.9
20260510072442 55 26 0.0 0.0 0.00 0.00 0.00 99 1029.3
20260510071938 54 19 0.0 0.0 0.00 0.00 0.00 99 1029.7
20260510071434 55 31 0.0 0.0 0.00 0.00 0.00 99 1029.8
20260510070933 55 0 0.0 0.0 0.00 0.00 0.00 99 1029.6
20260510070430 55 354 0.0 0.0 0.00 0.00 0.00 99 1029.9
20260510065925 55 2 0.0 0.0 0.00 0.00 0.00 99 1029.8
20260510065422 55 6 0.0 0.0 0.00 0.00 0.00 99 1029.9
20260510064918 54 15 0.0 0.0 0.00 0.00 0.00 99 1030.0
20260510064416 54 15 0.0 0.0 0.00 0.00 0.00 99 1029.9
20260510063913 54 20 0.0 0.0 0.00 0.00 0.00 99 1029.8
20260510063409 54 19 0.0 0.0 0.00 0.00 0.00 99 1029.7
20260510062907 54 20 0.0 0.0 0.00 0.00 0.00 99 1029.8
20260510062401 54 12 0.0 0.0 0.00 0.00 0.00 99 1029.6
20260510061857 54 12 0.0 0.0 0.00 0.00 0.00 99 1029.8
20260510061354 54 21 0.0 0.0 0.00 0.00 0.00 99 1029.5
20260510060850 54 10 0.0 0.0 0.00 0.00 0.00 99 1029.5
20260510060347 54 10 0.0 0.0 0.00 0.00 0.00 99 1029.5
20260510055843 54 10 0.0 0.0 0.00 0.00 0.00 99 1029.6
20260510055343 54 8 0.0 0.0 0.00 0.00 0.00 98 1029.5
20260510054842 54 4 0.0 0.0 0.00 0.00 0.00 98 1029.7
20260510054338 54 356 0.0 0.0 0.00 0.00 0.00 98 1029.7
20260510053833 54 359 0.0 0.0 0.00 0.00 0.00 98 1029.6
20260510053329 54 12 0.0 0.0 0.00 0.00 0.00 98 1029.4
20260510052825 54 13 0.0 0.0 0.00 0.00 0.00 97 1029.3
20260510052321 54 18 0.0 0.0 0.00 0.00 0.00 97 1029.4
20260510051818 54 19 0.0 0.0 0.00 0.00 0.00 97 1029.2
20260510051314 54 38 0.0 0.0 0.00 0.00 0.00 97 1029.4
20260510050811 54 23 0.0 0.0 0.00 0.00 0.00 98 1029.3
20260510050308 54 22 0.0 0.0 0.00 0.00 0.00 97 1029.3
20260510045805 54 22 0.0 0.0 0.00 0.00 0.00 97 1029.2
20260510045305 54 22 0.0 0.0 0.00 0.00 0.00 96 1029.2
20260510044759 54 22 0.0 0.0 0.00 0.00 0.00 96 1029.2
20260510044256 54 22 0.0 0.0 0.00 0.00 0.00 96 1029.2
20260510043752 55 22 0.0 0.0 0.00 0.00 0.00 96 1029.3
20260510043248 55 22 0.0 0.0 0.00 0.00 0.00 95 1029.3
20260510042746 55 23 0.0 0.0 0.00 0.00 0.00 94 1029.3
20260510042241 55 23 0.0 0.0 0.00 0.00 0.00 94 1029.3
20260510041738 55 24 0.0 0.0 0.00 0.00 0.00 95 1029.3
20260510041236 55 23 0.0 0.0 0.00 0.00 0.00 95 1029.3
20260510040733 55 30 0.0 0.0 0.00 0.00 0.00 93 1029.2
20260510040230 55 30 0.0 0.0 0.00 0.00 0.00 92 1029.2
20260510035725 55 30 0.0 0.0 0.00 0.00 0.00 92 1029.3
20260510035221 56 31 0.0 0.0 0.00 0.00 0.00 92 1029.3
20260510034717 56 35 0.0 0.0 0.00 0.00 0.00 91 1029.2
20260510034215 56 37 0.0 0.0 0.00 0.00 0.00 92 1029.2
20260510033711 56 23 0.0 0.0 0.00 0.00 0.00 92 1029.3
20260510033209 57 23 0.0 0.0 0.00 0.00 0.00 92 1029.3
20260510032705 57 23 0.0 0.0 0.00 0.00 0.00 93 1029.2
20260510032200 57 19 0.0 0.0 0.00 0.00 0.00 92 1029.2
20260510031655 57 19 0.0 0.0 0.00 0.00 0.00 92 1029.1
20260510031152 57 19 0.0 0.0 0.00 0.00 0.00 92 1029.2
20260510030646 57 19 0.0 0.0 0.00 0.00 0.00 92 1029.3
20260510030144 57 19 0.0 0.0 0.00 0.00 0.00 92 1029.3
20260510025641 57 25 0.0 0.0 0.00 0.00 0.00 92 1029.0
20260510025138 57 31 0.0 0.0 0.00 0.00 0.00 90 1029.3
20260510024635 59 34 0.0 0.0 0.00 0.00 0.00 90 1028.9
20260510024132 58 31 0.0 0.0 0.00 0.00 0.00 89 1029.0
20260510023627 59 25 0.0 0.0 0.00 0.00 0.00 89 1028.8
20260510023125 59 27 0.0 0.0 0.00 0.00 0.00 89 1028.9
20260510022625 59 26 0.0 0.0 0.00 0.00 0.00 90 1028.8
20260510022120 59 26 0.0 0.0 0.00 0.00 0.00 89 1028.8
20260510021616 59 26 0.0 0.0 0.00 0.00 0.00 89 1028.5
20260510021114 59 33 0.0 0.0 0.00 0.00 0.00 89 1028.7
20260510020613 60 33 0.0 0.0 0.00 0.00 0.00 88 1028.7
20260510020109 60 34 0.0 0.0 0.00 0.00 0.00 87 1028.6
20260510015605 60 27 0.0 0.0 0.00 0.00 0.00 85 1028.7
20260510015102 61 28 0.0 0.0 0.00 0.00 0.00 86 1028.5
20260510014558 61 28 0.0 0.0 0.00 0.00 0.00 85 1028.3
20260510014055 61 28 0.0 0.0 0.00 0.00 0.00 84 1028.4
20260510013549 61 28 0.0 0.0 0.00 0.00 0.00 85 1028.2
20260510013046 62 28 0.0 0.0 0.00 0.00 0.00 84 1028.3
20260510012539 62 33 0.0 0.0 0.00 0.00 0.00 83 1028.2
20260510012036 62 35 0.0 0.0 0.00 0.00 0.00 84 1027.8
20260510011536 64 38 0.0 0.0 0.00 0.00 0.00 83 1028.0
20260510011032 64 44 0.0 0.0 0.00 0.00 0.00 82 1027.9
20260510010529 64 26 0.0 0.0 0.00 0.00 0.00 78 1027.8
20260510010026 65 27 0.0 0.0 0.00 0.00 0.00 80 1027.7
20260510005521 66 20 0.0 0.0 0.00 0.00 0.00 77 1027.8
20260510005019 66 35 0.0 0.0 0.00 0.00 0.00 76 1027.7
20260510004516 67 41 0.0 0.0 0.00 0.00 0.00 75 1027.7
20260510004015 69 50 0.0 0.0 0.00 0.00 0.00 72 1027.6
20260510003510 71 35 0.0 0.0 0.00 0.00 0.00 70 1027.5
20260510003006 72 37 0.0 0.0 0.00 0.00 0.00 71 1027.5
20260510002502 74 32 0.0 0.0 0.00 0.00 0.00 68 1027.5
20260510001959 74 37 0.0 0.0 0.00 0.00 0.00 62 1027.4
20260510001456 76 38 0.0 0.0 0.00 0.00 0.00 65 1027.5
20260510000954 80 32 0.0 0.0 0.00 0.00 0.00 61 1027.6
20260510000449 82 24 0.0 0.0 0.00 0.00 0.00 51 1027.5
20260509235947 80 21 0.0 0.0 0.00 0.00 0.00 50 1027.3
20260509235443 81 30 0.0 1.0 0.00 0.00 0.00 52 1027.2
20260509234940 84 33 0.0 0.0 0.00 0.00 0.00 49 1027.3
20260509234436 85 22 0.0 0.0 0.00 0.00 0.00 38 1027.1
20260509233934 86 33 0.0 0.0 0.00 0.00 0.00 35 1027.0
20260509233432 84 9 0.0 0.0 0.00 0.00 0.00 34 1027.0
20260509232927 82 25 0.0 1.0 0.00 0.00 0.00 30 1026.8
20260509232426 85 45 2.0 2.0 0.00 0.00 0.00 33 1027.2
20260509231921 84 340 0.0 1.0 0.00 0.00 0.00 31 1027.1
20260509231418 83 4 0.0 1.0 0.00 0.00 0.00 33 1027.1
20260509230916 83 22 1.0 1.0 0.00 0.00 0.00 35 1027.1
20260509230413 82 38 1.0 2.0 0.00 0.00 0.00 32 1027.1
20260509225908 82 44 3.0 3.0 0.00 0.00 0.00 34 1026.9
20260509225405 82 33 2.0 2.0 0.00 0.00 0.00 36 1027.1
20260509224901 86 11 2.0 2.0 0.00 0.00 0.00 35 1027.0
20260509224357 85 29 0.0 0.0 0.00 0.00 0.00 36 1027.0
20260509223855 86 344 0.0 0.0 0.00 0.00 0.00 37 1027.1
20260509223351 85 15 1.0 1.0 0.00 0.00 0.00 37 1027.0
20260509222849 86 9 1.0 1.0 0.00 0.00 0.00 34 1027.0
20260509222349 86 329 0.0 0.0 0.00 0.00 0.00 37 1027.2
20260509221844 86 351 1.0 1.0 0.00 0.00 0.00 34 1027.0
20260509221342 85 359 0.0 1.0 0.00 0.00 0.00 35 1027.1
20260509220843 83 10 0.0 0.0 0.00 0.00 0.00 35 1027.2
20260509220339 85 136 2.0 2.0 0.00 0.00 0.00 34 1027.3
20260509215834 85 13 0.0 0.0 0.00 0.00 0.00 34 1027.2
20260509215331 85 5 0.0 0.0 0.00 0.00 0.00 36 1027.2
20260509214828 85 9 1.0 1.0 0.00 0.00 0.00 35 1027.3
20260509214326 85 22 1.0 2.0 0.00 0.00 0.00 40 1027.1
20260509213823 85 13 0.0 0.0 0.00 0.00 0.00 38 1026.9
20260509213318 83 347 1.0 1.0 0.00 0.00 0.00 40 1027.0
20260509212816 85 28 3.0 3.0 0.00 0.00 0.00 39 1027.0
20260509212313 84 339 1.0 1.0 0.00 0.00 0.00 42 1026.9
20260509211809 86 24 4.0 5.0 0.00 0.00 0.00 42 1026.8
20260509211305 85 10 0.0 0.0 0.00 0.00 0.00 41 1026.8
20260509210801 83 1 0.0 0.0 0.00 0.00 0.00 42 1027.0
20260509210300 85 30 0.0 1.0 0.00 0.00 0.00 42 1026.8
20260509205759 84 5 0.0 0.0 0.00 0.00 0.00 39 1026.9
20260509205253 84 7 1.0 1.0 0.00 0.00 0.00 43 1026.8
20260509204750 85 13 2.0 2.0 0.00 0.00 0.00 44 1026.9
20260509204246 84 10 1.0 2.0 0.00 0.00 0.00 47 1026.7
20260509203742 84 20 1.0 1.0 0.00 0.00 0.00 45 1026.8
20260509203240 83 26 0.0 1.0 0.00 0.00 0.00 45 1027.1
20260509202736 82 21 2.0 2.0 0.00 0.00 0.00 46 1026.9
20260509202232 83 308 0.0 1.0 0.00 0.00 0.00 47 1027.1
20260509201726 83 286 1.0 1.0 0.00 0.00 0.00 44 1027.2
20260509201224 82 87 0.0 1.0 0.00 0.00 0.00 49 1027.1
20260509200720 82 104 2.0 2.0 0.00 0.00 0.00 49 1027.1
20260509200215 82 303 0.0 1.0 0.00 0.00 0.00 43 1027.2
20260509195711 83 319 2.0 2.0 0.00 0.00 0.00 42 1027.4
20260509195207 81 355 0.0 1.0 0.00 0.00 0.00 48 1027.5
20260509194706 83 53 3.0 3.0 0.00 0.00 0.00 46 1027.6
20260509194203 81 32 4.0 5.0 0.00 0.00 0.00 49 1027.3
20260509193659 83 51 0.0 0.0 0.00 0.00 0.00 47 1027.7
20260509193155 85 295 2.0 2.0 0.00 0.00 0.00 43 1027.7
20260509192651 84 342 1.0 1.0 0.00 0.00 0.00 46 1027.7
20260509192147 83 283 1.0 2.0 0.00 0.00 0.00 46 1027.6
20260509191647 82 355 0.0 0.0 0.00 0.00 0.00 44 1027.6
20260509191144 81 331 0.0 0.0 0.00 0.00 0.00 53 1027.8
20260509190640 80 339 2.0 2.0 0.00 0.00 0.00 53 1027.9
20260509190137 80 55 1.0 1.0 0.00 0.00 0.00 51 1027.9
20260509185635 80 9 2.0 2.0 0.00 0.00 0.00 55 1027.9
20260509185131 81 342 0.0 1.0 0.00 0.00 0.00 47 1028.0
20260509184629 81 298 0.0 1.0 0.00 0.00 0.00 54 1028.0
20260509184126 80 347 1.0 1.0 0.00 0.00 0.00 58 1028.0
20260509183622 80 14 2.0 3.0 0.00 0.00 0.00 54 1027.7
20260509183117 81 329 1.0 1.0 0.00 0.00 0.00 53 1027.8
20260509182613 80 345 0.0 1.0 0.00 0.00 0.00 56 1028.0
20260509182110 80 318 0.0 1.0 0.00 0.00 0.00 55 1028.1
20260509181609 80 336 1.0 2.0 0.00 0.00 0.00 54 1027.8
20260509181106 78 174 1.0 1.0 0.00 0.00 0.00 52 1028.0
20260509180602 78 60 1.0 1.0 0.00 0.00 0.00 59 1028.2
20260509180059 80 359 0.0 1.0 0.00 0.00 0.00 57 1028.0
20260509175554 78 23 1.0 2.0 0.00 0.00 0.00 58 1027.8
20260509175052 78 333 3.0 5.0 0.00 0.00 0.00 59 1027.9